Regional Weather Roundup
Issued by NWS Northern Indiana

Home | Current Version | Previous Version | Text Only | Print | Product List | Glossary On
Versions: 1 2 3 4 5 6 7 8 9 10 11 12 13 14 15 16 17 18 19 20 21 22 23 24 25 26 27 28 29 30 31 32 33 34 35 36 37 38 39 40 41 42 43 44 45 46 47 48 49 50
000
ASUS43 KIWX 210710
RWRIWX

KIWX WEATHER ROUNDUP
NATIONAL WEATHER SERVICE NORTHERN INDIANA
300 AM EDT TUE OCT 21 2014

NOTE: "FAIR" INDICATES FEW OR NO CLOUDS BELOW 12,000 FEET WITH NO
SIGNIFICANT WEATHER AND/OR OBSTRUCTIONS TO VISIBILITY.

* THESE STATIONS ARE NOT UNDER NWS QUALITY CONTROL. THEY ALSO MAY NOT
  REPORT WEATHER SUCH AS PRECIPITATION OR FOG.

INZ001>027-210800-
NORTHERN INDIANA

CITY           SKY/WX    TMP DP  RH WIND       PRES   REMARKS
GARY*          CLOUDY    54  44  67 N12       30.01R
VALPARAISO     CLOUDY    51  44  77 N6        29.99R
MICHIGAN CITY* LGT RAIN  50  43  76 N10G17    29.99S
LAPORTE*       CLOUDY    52  46  78 N12       29.99R
KNOX*          CLOUDY    49  44  81 NW5       29.97S
SOUTH BEND     CLOUDY    49  45  86 N5        29.98S
GOSHEN         CLOUDY    49  42  77 NW7       29.96R
MONTICELLO*    CLOUDY    48  46  93 NW5       29.97S
LOGANSPORT*    CLOUDY    50  43  76 NW6       29.98R
ROCHESTER*     CLOUDY    52  46  82 NW3       29.97R
WARSAW*        CLOUDY    48  43  81 NW6       29.96R
ANGOLA*        CLOUDY    46  43  87 NW8       29.93R
FORT WAYNE     PTCLDY    47  41  80 W6        29.95R
HUNTINGTON*    MOCLDY    48  44  86 NW3       29.95R
PERU/GRISSOM   CLOUDY    50  50 100 NW8       29.96S
MARION*        CLOUDY    49  45  84 NW5       29.96S

$$
INZ028>050-210800-
CENTRAL INDIANA

CITY           SKY/WX    TMP DP  RH WIND       PRES   REMARKS
LAFAYETTE      CLEAR     44  43  96 NW6       29.99R
KOKOMO*        CLOUDY    50  45  81 NW8       29.97S
MUNCIE*        CLOUDY    49  46  90 NW7       29.95R
INDIANAPOLIS   CLOUDY    48  45  89 NW7       29.97S

$$
MIZ043>046-050>051-056>058-064>065-071>073-077>080-210800-
SOUTHWEST LOWER MICHIGAN

CITY           SKY/WX    TMP DP  RH WIND       PRES   REMARKS
BATTLE CREEK   CLOUDY    47  41  80 NW7       29.94S
BENTON HARBOR  CLOUDY    49  45  86 VRB7      29.97S
COLDWATER*     CLOUDY    48  43  84 NW8       29.93R
HILLSDALE*     CLOUDY    48  45  89 NW7       29.91R
HOLLAND        CLOUDY    49  42  77 N6        29.98S
GRAND RAPIDS   CLOUDY    48  43  82 NW8       29.95S
KALAMAZOO      CLOUDY    47  41  80 NW12      29.95R
STURGIS*       CLOUDY    46  43  87 NW7       29.94R
THREE RIVERS*  CLOUDY    48  42  82 NW7       29.95S

$$
OHZ001>008-015>018-024>025-210800-
NORTHWEST OHIO

CITY           SKY/WX    TMP DP  RH WIND       PRES   REMARKS
WAUSEON*       CLOUDY    50  46  87 N8        29.91R
DEFIANCE       PTCLDY    48  42  80 NW7       29.92R
FINDLAY        CLOUDY    52  48  86 W6        29.88S
TOLEDO EXPRESS CLOUDY    49  44  83 N10       29.90R
TOLEDO METCALF CLOUDY    50  44  80 NW9       29.90R
LIMA           CLOUDY    51  47  86 W7        29.90S

$$
AND FOR LAKE MICHIGAN COASTAL AND OPEN LAKE BUOY OBSERVATIONS

STATION/POSITION TEMP    WIND        PRES    VSBY  WAVE
                 AIR SEA DIR/SP/G                  HT/PER
                 (F)     (DEG/KT/KT) (MB)    (MI)  (FT/S)
CALUMET HARBOR    52     330/  8/ 14 1014.9R
MICHIGAN CITY     52     350/ 22/ 29   N/A
SAINT JOSEPH      52                 1016.3R
SOUTH LAKE BUOY   51 54  350/ 17/ 21 1015.6R         4/ 6

$$
&&



USA.gov is the U.S. government's official web portal to all federal, state and local government web resources and services.